C/2016 N6 ( PanSTARRS )

Japanese version
Home page
Updated on November 23, 2017

---------------------------------------------------------------------

* Profile

Discovery Date July 14, 2016
Magnitude 20.7 mag
Discoverer Pan-STARRS 1 telescope (Haleakala)

* Pictures

* Orbital Elements

Epoch 2018 July 21.0 TT = JDT 2458320.5
T 2018 July 18.21010 TT                                 MPCW
q   2.6690968            (2000.0)            P               Q
z  +0.0004640      Peri.  162.80519     -0.53334865     +0.08479042
 +/-0.0000006      Node   298.97611     +0.61778178     +0.71869996
e   0.9987615      Incl.  105.83222     +0.57782773     -0.69013111
From 1153 observations 2016 June 27-2017 Oct. 29, mean residual 0".4.

* Finding Charts

* Magnitudes Graph

        m1 = 3.5 + 5 log d + 14.0 log r

---------------------------------------------------------------------

The orbital elements are published on M.P.E.C. 2017-V13.
The charts are made with StellaNavigator Ver.10 (AstroArts).
The magnitudes graphs are made with Comet for Windows.

---------------------------------------------------------------------

Copyright(C) Seiichi Yoshida (comet@aerith.net). All rights reserved.